Location: Newark
(31.5350°N, 35.0986°E)
Time: 04:10:57
(UTC+00:00)

Transit 4A - Pass Details

Date: 27 October 2019
Orbit: 869 x 976 km, 66.8° (Epoch: 18 November)

Event Time Altitude Azimuth Distance (km) Brightness Sun altitude
Rises 10:40:38 0° 327° (NNW) 3,509 10.7 42.0°
Reaches altitude 10° 10:43:14 10° 322° (NW) 2,552 10.1 41.8°
Maximum altitude 10:48:51 48° 250° (WSW) 1,130 9.7 41.2°
Drops below altitude 10° 10:54:22 10° 177° (S) 2,504 11.0 40.6°
Sets 10:56:54 0° 172° (S) 3,436 11.4 40.4°
